owner,sensor,date,latitude,longitude,sea_surface_height_above_sea_level,qcFlag 
TCOON,ioos:station:TCOON:524:1,2014-02-01T00:06:00Z,29.8672,-93.9310,1.661,1111122 
TCOON,ioos:station:TCOON:524:1,2014-02-01T00:36:00Z,29.8672,-93.9310,1.652,1111122 
TCOON,ioos:station:TCOON:524:1,2014-02-01T01:06:00Z,29.8672,-93.9310,1.654,1111122 
TCOON,ioos:station:TCOON:524:1,2014-02-01T01:36:00Z,29.8672,-93.9310,1.656,1111122 
TCOON,ioos:station:TCOON:524:1,2014-02-01T02:06:00Z,29.8672,-93.9310,1.65,1111122 
TCOON,ioos:station:TCOON:524:1,2014-02-01T02:36:00Z,29.8672,-93.9310,1.651,1111122 
TCOON,ioos:station:TCOON:524:1,2014-02-01T03:06:00Z,29.8672,-93.9310,1.645,1111122 
TCOON,ioos:station:TCOON:524:1,2014-02-01T03:36:00Z,29.8672,-93.9310,1.648,1111122 
TCOON,ioos:station:TCOON:524:1,2014-02-01T04:06:00Z,29.8672,-93.9310,1.643,1111122 
TCOON,ioos:station:TCOON:524:1,2014-02-01T04:36:00Z,29.8672,-93.9310,1.624,1111122 
TCOON,ioos:station:TCOON:524:1,2014-02-01T05:06:00Z,29.8672,-93.9310,1.627,1111122 
TCOON,ioos:station:TCOON:524:1,2014-02-01T05:54:00Z,29.8672,-93.9310,1.66,1111122 
TCOON,ioos:station:TCOON:524:1,2014-02-01T06:36:00Z,29.8672,-93.9310,1.629,1111122 
TCOON,ioos:station:TCOON:524:1,2014-02-01T07:06:00Z,29.8672,-93.9310,1.677,1111122 
TCOON,ioos:station:TCOON:524:1,2014-02-01T07:36:00Z,29.8672,-93.9310,1.662,1111122 
TCOON,ioos:station:TCOON:524:1,2014-02-01T08:06:00Z,29.8672,-93.9310,1.696,1111122 
TCOON,ioos:station:TCOON:524:1,2014-02-01T08:36:00Z,29.8672,-93.9310,1.719,1111122 
TCOON,ioos:station:TCOON:524:1,2014-02-01T09:06:00Z,29.8672,-93.9310,1.7,1111122 
TCOON,ioos:station:TCOON:524:1,2014-02-01T09:36:00Z,29.8672,-93.9310,1.707,1111122 
TCOON,ioos:station:TCOON:524:1,2014-02-01T10:06:00Z,29.8672,-93.9310,1.73,1111122 
TCOON,ioos:station:TCOON:524:1,2014-02-01T10:36:00Z,29.8672,-93.9310,1.744,1111122 
TCOON,ioos:station:TCOON:524:1,2014-02-01T11:06:00Z,29.8672,-93.9310,1.753,1111122 
TCOON,ioos:station:TCOON:524:1,2014-02-01T11:36:00Z,29.8672,-93.9310,1.753,1111122 
TCOON,ioos:station:TCOON:524:1,2014-02-01T12:06:00Z,29.8672,-93.9310,1.732,1111122 
TCOON,ioos:station:TCOON:524:1,2014-02-01T12:42:00Z,29.8672,-93.9310,1.711,1111122 
TCOON,ioos:station:TCOON:524:1,2014-02-01T13:06:00Z,29.8672,-93.9310,1.707,1111122 
TCOON,ioos:station:TCOON:524:1,2014-02-01T13:36:00Z,29.8672,-93.9310,1.677,1111122 
TCOON,ioos:station:TCOON:524:1,2014-02-01T14:06:00Z,29.8672,-93.9310,1.653,1111122 
TCOON,ioos:station:TCOON:524:1,2014-02-01T14:36:00Z,29.8672,-93.9310,1.579,1111122 
TCOON,ioos:station:TCOON:524:1,2014-02-01T15:06:00Z,29.8672,-93.9310,1.468,1111122 
TCOON,ioos:station:TCOON:524:1,2014-02-01T15:30:00Z,29.8672,-93.9310,1.522,1111122 
TCOON,ioos:station:TCOON:524:1,2014-02-01T16:06:00Z,29.8672,-93.9310,1.491,1111122 
TCOON,ioos:station:TCOON:524:1,2014-02-01T16:36:00Z,29.8672,-93.9310,1.478,1111122 
TCOON,ioos:station:TCOON:524:1,2014-02-01T17:06:00Z,29.8672,-93.9310,1.449,1111122 
TCOON,ioos:station:TCOON:524:1,2014-02-01T17:30:00Z,29.8672,-93.9310,1.44,1111122 
TCOON,ioos:station:TCOON:524:1,2014-02-01T18:00:00Z,29.8672,-93.9310,1.411,1111122 
TCOON,ioos:station:TCOON:524:1,2014-02-01T18:36:00Z,29.8672,-93.9310,1.409,1111122 
TCOON,ioos:station:TCOON:524:1,2014-02-01T19:06:00Z,29.8672,-93.9310,1.422,1111122 
TCOON,ioos:station:TCOON:524:1,2014-02-01T19:36:00Z,29.8672,-93.9310,1.388,1111122 
TCOON,ioos:station:TCOON:524:1,2014-02-01T20:06:00Z,29.8672,-93.9310,1.432,1111122 
TCOON,ioos:station:TCOON:524:1,2014-02-01T20:36:00Z,29.8672,-93.9310,1.455,1111122 
TCOON,ioos:station:TCOON:524:1,2014-02-01T21:06:00Z,29.8672,-93.9310,1.493,1111122 
TCOON,ioos:station:TCOON:524:1,2014-02-01T21:36:00Z,29.8672,-93.9310,1.51,1111122 
TCOON,ioos:station:TCOON:524:1,2014-02-01T22:00:00Z,29.8672,-93.9310,1.54,1111122 
TCOON,ioos:station:TCOON:524:1,2014-02-01T22:36:00Z,29.8672,-93.9310,1.593,1111122 
TCOON,ioos:station:TCOON:524:1,2014-02-01T23:06:00Z,29.8672,-93.9310,1.625,1111122 
TCOON,ioos:station:TCOON:524:1,2014-02-01T23:36:00Z,29.8672,-93.9310,1.648,1111122 
TCOON,ioos:station:TCOON:524:1,2014-02-02T00:06:00Z,29.8672,-93.9310,1.645,1111122 
TCOON,ioos:station:TCOON:524:1,2014-02-02T00:36:00Z,29.8672,-93.9310,1.638,1111122 
TCOON,ioos:station:TCOON:524:1,2014-02-02T01:00:00Z,29.8672,-93.9310,1.641,1111122 
TCOON,ioos:station:TCOON:524:1,2014-02-02T01:36:00Z,29.8672,-93.9310,1.645,1111122 
TCOON,ioos:station:TCOON:524:1,2014-02-02T02:06:00Z,29.8672,-93.9310,1.643,1111122 
TCOON,ioos:station:TCOON:524:1,2014-02-02T02:36:00Z,29.8672,-93.9310,1.637,1111122 
TCOON,ioos:station:TCOON:524:1,2014-02-02T03:06:00Z,29.8672,-93.9310,1.632,1111122 
TCOON,ioos:station:TCOON:524:1,2014-02-02T03:36:00Z,29.8672,-93.9310,1.632,1111122 
TCOON,ioos:station:TCOON:524:1,2014-02-02T04:06:00Z,29.8672,-93.9310,1.614,1111122 
TCOON,ioos:station:TCOON:524:1,2014-02-02T04:36:00Z,29.8672,-93.9310,1.617,1111122 
TCOON,ioos:station:TCOON:524:1,2014-02-02T05:06:00Z,29.8672,-93.9310,1.58,1111122 
TCOON,ioos:station:TCOON:524:1,2014-02-02T05:36:00Z,29.8672,-93.9310,1.57,1111122 
TCOON,ioos:station:TCOON:524:1,2014-02-02T06:06:00Z,29.8672,-93.9310,1.563,1111122 
TCOON,ioos:station:TCOON:524:1,2014-02-02T06:36:00Z,29.8672,-93.9310,1.564,1111122 
TCOON,ioos:station:TCOON:524:1,2014-02-02T07:06:00Z,29.8672,-93.9310,1.58,1111122 
TCOON,ioos:station:TCOON:524:1,2014-02-02T07:36:00Z,29.8672,-93.9310,1.583,1111122 
TCOON,ioos:station:TCOON:524:1,2014-02-02T08:06:00Z,29.8672,-93.9310,1.604,1111122 
TCOON,ioos:station:TCOON:524:1,2014-02-02T08:36:00Z,29.8672,-93.9310,1.603,1111122 
TCOON,ioos:station:TCOON:524:1,2014-02-02T09:06:00Z,29.8672,-93.9310,1.615,1111122 
TCOON,ioos:station:TCOON:524:1,2014-02-02T09:36:00Z,29.8672,-93.9310,1.622,1111122 
TCOON,ioos:station:TCOON:524:1,2014-02-02T10:06:00Z,29.8672,-93.9310,1.636,1111122 
TCOON,ioos:station:TCOON:524:1,2014-02-02T10:36:00Z,29.8672,-93.9310,1.659,1111122 
TCOON,ioos:station:TCOON:524:1,2014-02-02T11:06:00Z,29.8672,-93.9310,1.68,1111122 
TCOON,ioos:station:TCOON:524:1,2014-02-02T11:36:00Z,29.8672,-93.9310,1.682,1111122 
TCOON,ioos:station:TCOON:524:1,2014-02-02T12:06:00Z,29.8672,-93.9310,1.701,1111122 
TCOON,ioos:station:TCOON:524:1,2014-02-02T12:36:00Z,29.8672,-93.9310,1.691,1111122 
TCOON,ioos:station:TCOON:524:1,2014-02-02T13:06:00Z,29.8672,-93.9310,1.695,1111122 
TCOON,ioos:station:TCOON:524:1,2014-02-02T13:36:00Z,29.8672,-93.9310,1.662,1111122 
TCOON,ioos:station:TCOON:524:1,2014-02-02T14:06:00Z,29.8672,-93.9310,1.65,1111122 
TCOON,ioos:station:TCOON:524:1,2014-02-02T14:36:00Z,29.8672,-93.9310,1.634,1111122 
TCOON,ioos:station:TCOON:524:1,2014-02-02T15:06:00Z,29.8672,-93.9310,1.611,1111122 
TCOON,ioos:station:TCOON:524:1,2014-02-02T15:36:00Z,29.8672,-93.9310,1.564,1111122 
TCOON,ioos:station:TCOON:524:1,2014-02-02T16:06:00Z,29.8672,-93.9310,1.535,1111122 
TCOON,ioos:station:TCOON:524:1,2014-02-02T17:06:00Z,29.8672,-93.9310,1.461,1111122 
TCOON,ioos:station:TCOON:524:1,2014-02-02T17:36:00Z,29.8672,-93.9310,1.45,1111122 
TCOON,ioos:station:TCOON:524:1,2014-02-02T18:06:00Z,29.8672,-93.9310,1.432,1111122 
TCOON,ioos:station:TCOON:524:1,2014-02-02T18:36:00Z,29.8672,-93.9310,1.435,1111122 
TCOON,ioos:station:TCOON:524:1,2014-02-02T19:06:00Z,29.8672,-93.9310,1.451,1111122 
TCOON,ioos:station:TCOON:524:1,2014-02-02T19:36:00Z,29.8672,-93.9310,1.459,1111122 
TCOON,ioos:station:TCOON:524:1,2014-02-02T20:06:00Z,29.8672,-93.9310,1.469,1111122 
TCOON,ioos:station:TCOON:524:1,2014-02-02T20:36:00Z,29.8672,-93.9310,1.472,1111122 
TCOON,ioos:station:TCOON:524:1,2014-02-02T21:24:00Z,29.8672,-93.9310,1.458,1111122 
TCOON,ioos:station:TCOON:524:1,2014-02-02T22:00:00Z,29.8672,-93.9310,1.513,1111122 
TCOON,ioos:station:TCOON:524:1,2014-02-02T22:36:00Z,29.8672,-93.9310,1.523,1111122 
TCOON,ioos:station:TCOON:524:1,2014-02-02T23:06:00Z,29.8672,-93.9310,1.584,1111122 
TCOON,ioos:station:TCOON:524:1,2014-02-02T23:36:00Z,29.8672,-93.9310,1.526,1111122 
TCOON,ioos:station:TCOON:524:1,2014-02-03T00:06:00Z,29.8672,-93.9310,1.531,1111122 
TCOON,ioos:station:TCOON:524:1,2014-02-03T00:36:00Z,29.8672,-93.9310,1.59,1111122 
TCOON,ioos:station:TCOON:524:1,2014-02-03T01:06:00Z,29.8672,-93.9310,1.517,1111122 
TCOON,ioos:station:TCOON:524:1,2014-02-03T01:36:00Z,29.8672,-93.9310,1.529,1111122 
TCOON,ioos:station:TCOON:524:1,2014-02-03T02:06:00Z,29.8672,-93.9310,1.538,1111122 
TCOON,ioos:station:TCOON:524:1,2014-02-03T02:36:00Z,29.8672,-93.9310,1.498,1111122 
TCOON,ioos:station:TCOON:524:1,2014-02-03T03:06:00Z,29.8672,-93.9310,1.494,1111122 
TCOON,ioos:station:TCOON:524:1,2014-02-03T04:36:00Z,29.8672,-93.9310,1.338,1111122 
TCOON,ioos:station:TCOON:524:1,2014-02-03T05:06:00Z,29.8672,-93.9310,1.301,1111122 
TCOON,ioos:station:TCOON:524:1,2014-02-03T06:06:00Z,29.8672,-93.9310,1.281,1111122 
TCOON,ioos:station:TCOON:524:1,2014-02-03T06:36:00Z,29.8672,-93.9310,1.29,1111122 
TCOON,ioos:station:TCOON:524:1,2014-02-03T07:06:00Z,29.8672,-93.9310,1.275,1111122 
TCOON,ioos:station:TCOON:524:1,2014-02-03T07:36:00Z,29.8672,-93.9310,1.253,1111122 
TCOON,ioos:station:TCOON:524:1,2014-02-03T08:06:00Z,29.8672,-93.9310,1.31,1111122 
TCOON,ioos:station:TCOON:524:1,2014-02-03T08:36:00Z,29.8672,-93.9310,1.272,1111122 
TCOON,ioos:station:TCOON:524:1,2014-02-03T09:06:00Z,29.8672,-93.9310,1.294,1111122 
TCOON,ioos:station:TCOON:524:1,2014-02-03T10:00:00Z,29.8672,-93.9310,1.306,1111122 
TCOON,ioos:station:TCOON:524:1,2014-02-03T10:36:00Z,29.8672,-93.9310,1.308,1111122 
TCOON,ioos:station:TCOON:524:1,2014-02-03T11:06:00Z,29.8672,-93.9310,1.328,1111122 
TCOON,ioos:station:TCOON:524:1,2014-02-03T11:36:00Z,29.8672,-93.9310,1.355,1111122 
TCOON,ioos:station:TCOON:524:1,2014-02-03T12:24:00Z,29.8672,-93.9310,1.338,1111122 
TCOON,ioos:station:TCOON:524:1,2014-02-03T13:06:00Z,29.8672,-93.9310,1.362,1111122 
TCOON,ioos:station:TCOON:524:1,2014-02-03T13:36:00Z,29.8672,-93.9310,1.337,1111122 
TCOON,ioos:station:TCOON:524:1,2014-02-03T14:06:00Z,29.8672,-93.9310,1.368,1111122 
TCOON,ioos:station:TCOON:524:1,2014-02-03T14:36:00Z,29.8672,-93.9310,1.294,1111122 
TCOON,ioos:station:TCOON:524:1,2014-02-03T15:06:00Z,29.8672,-93.9310,1.374,1111122 
TCOON,ioos:station:TCOON:524:1,2014-02-03T15:36:00Z,29.8672,-93.9310,1.368,1111122 
TCOON,ioos:station:TCOON:524:1,2014-02-03T17:06:00Z,29.8672,-93.9310,1.198,1111122 
TCOON,ioos:station:TCOON:524:1,2014-02-03T17:36:00Z,29.8672,-93.9310,1.237,1111122 
TCOON,ioos:station:TCOON:524:1,2014-02-03T18:36:00Z,29.8672,-93.9310,1.272,1111122 
TCOON,ioos:station:TCOON:524:1,2014-02-03T19:06:00Z,29.8672,-93.9310,1.267,1111122 
TCOON,ioos:station:TCOON:524:1,2014-02-03T19:36:00Z,29.8672,-93.9310,1.233,1111122 
TCOON,ioos:station:TCOON:524:1,2014-02-03T20:06:00Z,29.8672,-93.9310,1.287,1111122 
TCOON,ioos:station:TCOON:524:1,2014-02-03T20:36:00Z,29.8672,-93.9310,1.27,1111122 
TCOON,ioos:station:TCOON:524:1,2014-02-03T21:06:00Z,29.8672,-93.9310,1.346,1111122 
TCOON,ioos:station:TCOON:524:1,2014-02-03T21:36:00Z,29.8672,-93.9310,1.296,1111122 
TCOON,ioos:station:TCOON:524:1,2014-02-03T22:06:00Z,29.8672,-93.9310,1.335,1111122 
TCOON,ioos:station:TCOON:524:1,2014-02-03T22:48:00Z,29.8672,-93.9310,1.361,1111122 
TCOON,ioos:station:TCOON:524:1,2014-02-04T00:18:00Z,29.8672,-93.9310,1.375,1111122 
TCOON,ioos:station:TCOON:524:1,2014-02-04T01:06:00Z,29.8672,-93.9310,1.45,1111122 
TCOON,ioos:station:TCOON:524:1,2014-02-04T01:36:00Z,29.8672,-93.9310,1.462,1111122 
TCOON,ioos:station:TCOON:524:1,2014-02-04T02:06:00Z,29.8672,-93.9310,1.479,1111122 
TCOON,ioos:station:TCOON:524:1,2014-02-04T02:36:00Z,29.8672,-93.9310,1.466,1111122 
TCOON,ioos:station:TCOON:524:1,2014-02-04T03:06:00Z,29.8672,-93.9310,1.488,1111122 
TCOON,ioos:station:TCOON:524:1,2014-02-04T03:36:00Z,29.8672,-93.9310,1.503,1111122 
TCOON,ioos:station:TCOON:524:1,2014-02-04T04:06:00Z,29.8672,-93.9310,1.485,1111122 
TCOON,ioos:station:TCOON:524:1,2014-02-04T05:18:00Z,29.8672,-93.9310,1.492,1111122 
TCOON,ioos:station:TCOON:524:1,2014-02-04T05:36:00Z,29.8672,-93.9310,1.472,1111122 
TCOON,ioos:station:TCOON:524:1,2014-02-04T06:24:00Z,29.8672,-93.9310,1.481,1111122 
TCOON,ioos:station:TCOON:524:1,2014-02-04T06:36:00Z,29.8672,-93.9310,1.451,1111122 
TCOON,ioos:station:TCOON:524:1,2014-02-04T07:06:00Z,29.8672,-93.9310,1.452,1111122 
TCOON,ioos:station:TCOON:524:1,2014-02-14T14:30:00Z,29.8672,-93.9310,1.422,1111122 
TCOON,ioos:station:TCOON:524:1,2014-02-14T15:00:00Z,29.8672,-93.9310,1.38,1111122 
TCOON,ioos:station:TCOON:524:1,2014-02-14T15:30:00Z,29.8672,-93.9310,1.369,1111122 
TCOON,ioos:station:TCOON:524:1,2014-02-14T16:00:00Z,29.8672,-93.9310,1.376,1111122 
TCOON,ioos:station:TCOON:524:1,2014-02-14T16:30:00Z,29.8672,-93.9310,1.3,1111122 
TCOON,ioos:station:TCOON:524:1,2014-02-14T17:00:00Z,29.8672,-93.9310,1.316,1111122 
TCOON,ioos:station:TCOON:524:1,2014-02-14T17:30:00Z,29.8672,-93.9310,1.36,1111122 
TCOON,ioos:station:TCOON:524:1,2014-02-14T18:00:00Z,29.8672,-93.9310,1.34,1111122 
TCOON,ioos:station:TCOON:524:1,2014-02-14T18:30:00Z,29.8672,-93.9310,1.383,1111122 
TCOON,ioos:station:TCOON:524:1,2014-02-14T19:00:00Z,29.8672,-93.9310,1.409,1111122 
TCOON,ioos:station:TCOON:524:1,2014-02-14T19:30:00Z,29.8672,-93.9310,1.423,1111122 
TCOON,ioos:station:TCOON:524:1,2014-02-14T20:00:00Z,29.8672,-93.9310,1.47,1111122 
TCOON,ioos:station:TCOON:524:1,2014-02-14T20:30:00Z,29.8672,-93.9310,1.536,1111122 
TCOON,ioos:station:TCOON:524:1,2014-02-14T21:00:00Z,29.8672,-93.9310,1.567,1111122 
TCOON,ioos:station:TCOON:524:1,2014-02-14T21:30:00Z,29.8672,-93.9310,1.568,1111122 
TCOON,ioos:station:TCOON:524:1,2014-02-14T22:00:00Z,29.8672,-93.9310,1.579,1111122 
TCOON,ioos:station:TCOON:524:1,2014-02-14T22:30:00Z,29.8672,-93.9310,1.53,1111122 
TCOON,ioos:station:TCOON:524:1,2014-02-14T23:00:00Z,29.8672,-93.9310,1.587,1111122 
TCOON,ioos:station:TCOON:524:1,2014-02-14T23:36:00Z,29.8672,-93.9310,1.596,1111122 
TCOON,ioos:station:TCOON:524:1,2014-02-15T00:00:00Z,29.8672,-93.9310,1.593,1111122 
TCOON,ioos:station:TCOON:524:1,2014-02-15T00:30:00Z,29.8672,-93.9310,1.601,1111122 
TCOON,ioos:station:TCOON:524:1,2014-02-15T01:00:00Z,29.8672,-93.9310,1.594,1111122 
TCOON,ioos:station:TCOON:524:1,2014-02-15T01:30:00Z,29.8672,-93.9310,1.592,1111122 
TCOON,ioos:station:TCOON:524:1,2014-02-15T02:00:00Z,29.8672,-93.9310,1.593,1111122 
TCOON,ioos:station:TCOON:524:1,2014-02-15T02:30:00Z,29.8672,-93.9310,1.574,1111122 
TCOON,ioos:station:TCOON:524:1,2014-02-15T03:00:00Z,29.8672,-93.9310,1.532,1111122 
TCOON,ioos:station:TCOON:524:1,2014-02-15T03:30:00Z,29.8672,-93.9310,1.528,1111122 
TCOON,ioos:station:TCOON:524:1,2014-02-15T04:00:00Z,29.8672,-93.9310,1.49,1111122 
TCOON,ioos:station:TCOON:524:1,2014-02-15T04:30:00Z,29.8672,-93.9310,1.462,1111122 
TCOON,ioos:station:TCOON:524:1,2014-02-15T05:00:00Z,29.8672,-93.9310,1.45,1111122 
TCOON,ioos:station:TCOON:524:1,2014-02-15T05:30:00Z,29.8672,-93.9310,1.448,1111122 
TCOON,ioos:station:TCOON:524:1,2014-02-15T06:00:00Z,29.8672,-93.9310,1.459,1111122 
TCOON,ioos:station:TCOON:524:1,2014-02-15T06:30:00Z,29.8672,-93.9310,1.471,1111122 
TCOON,ioos:station:TCOON:524:1,2014-02-15T07:00:00Z,29.8672,-93.9310,1.459,1111122 
TCOON,ioos:station:TCOON:524:1,2014-02-15T07:30:00Z,29.8672,-93.9310,1.474,1111122 
TCOON,ioos:station:TCOON:524:1,2014-02-15T08:00:00Z,29.8672,-93.9310,1.49,1111122 
TCOON,ioos:station:TCOON:524:1,2014-02-15T08:30:00Z,29.8672,-93.9310,1.474,1111122 
TCOON,ioos:station:TCOON:524:1,2014-02-15T09:00:00Z,29.8672,-93.9310,1.463,1111122 
TCOON,ioos:station:TCOON:524:1,2014-02-15T09:30:00Z,29.8672,-93.9310,1.482,1111122 
TCOON,ioos:station:TCOON:524:1,2014-02-15T14:00:00Z,29.8672,-93.9310,1.366,1111122 
TCOON,ioos:station:TCOON:524:1,2014-02-15T14:30:00Z,29.8672,-93.9310,1.293,1111122 
TCOON,ioos:station:TCOON:524:1,2014-02-15T15:00:00Z,29.8672,-93.9310,1.211,1111122 
TCOON,ioos:station:TCOON:524:1,2014-02-15T15:30:00Z,29.8672,-93.9310,1.224,1111122 
TCOON,ioos:station:TCOON:524:1,2014-02-15T16:00:00Z,29.8672,-93.9310,1.194,1111122 
TCOON,ioos:station:TCOON:524:1,2014-02-15T16:30:00Z,29.8672,-93.9310,1.192,1111122 
TCOON,ioos:station:TCOON:524:1,2014-02-15T17:00:00Z,29.8672,-93.9310,1.235,1111122 
TCOON,ioos:station:TCOON:524:1,2014-02-15T17:30:00Z,29.8672,-93.9310,1.263,1111122 
TCOON,ioos:station:TCOON:524:1,2014-02-15T18:00:00Z,29.8672,-93.9310,1.285,1111122 
TCOON,ioos:station:TCOON:524:1,2014-02-15T18:30:00Z,29.8672,-93.9310,1.283,1111122 
TCOON,ioos:station:TCOON:524:1,2014-02-15T19:00:00Z,29.8672,-93.9310,1.31,1111122 
TCOON,ioos:station:TCOON:524:1,2014-02-15T19:30:00Z,29.8672,-93.9310,1.346,1111122 
TCOON,ioos:station:TCOON:524:1,2014-02-15T20:06:00Z,29.8672,-93.9310,1.363,1111122 
TCOON,ioos:station:TCOON:524:1,2014-02-15T20:48:00Z,29.8672,-93.9310,1.384,1111122 
TCOON,ioos:station:TCOON:524:1,2014-02-15T21:36:00Z,29.8672,-93.9310,1.5,1111122 
TCOON,ioos:station:TCOON:524:1,2014-02-15T22:00:00Z,29.8672,-93.9310,1.485,1111122 
TCOON,ioos:station:TCOON:524:1,2014-02-15T22:30:00Z,29.8672,-93.9310,1.488,1111122 
TCOON,ioos:station:TCOON:524:1,2014-02-15T23:00:00Z,29.8672,-93.9310,1.516,1111122 
TCOON,ioos:station:TCOON:524:1,2014-02-15T23:30:00Z,29.8672,-93.9310,1.516,1111122 
TCOON,ioos:station:TCOON:524:1,2014-02-16T00:00:00Z,29.8672,-93.9310,1.483,1111122 
TCOON,ioos:station:TCOON:524:1,2014-02-16T00:30:00Z,29.8672,-93.9310,1.523,1111122 
TCOON,ioos:station:TCOON:524:1,2014-02-16T01:00:00Z,29.8672,-93.9310,1.504,1111122 
TCOON,ioos:station:TCOON:524:1,2014-02-16T01:30:00Z,29.8672,-93.9310,1.524,1111122 
TCOON,ioos:station:TCOON:524:1,2014-02-16T02:00:00Z,29.8672,-93.9310,1.515,1111122 
TCOON,ioos:station:TCOON:524:1,2014-02-16T02:30:00Z,29.8672,-93.9310,1.513,1111122 
TCOON,ioos:station:TCOON:524:1,2014-02-16T03:00:00Z,29.8672,-93.9310,1.534,1111122 
TCOON,ioos:station:TCOON:524:1,2014-02-16T03:30:00Z,29.8672,-93.9310,1.495,1111122 
TCOON,ioos:station:TCOON:524:1,2014-02-16T04:00:00Z,29.8672,-93.9310,1.5,1111122 
TCOON,ioos:station:TCOON:524:1,2014-02-16T04:30:00Z,29.8672,-93.9310,1.497,1111122 
TCOON,ioos:station:TCOON:524:1,2014-02-16T05:00:00Z,29.8672,-93.9310,1.47,1111122 
TCOON,ioos:station:TCOON:524:1,2014-02-16T05:48:00Z,29.8672,-93.9310,1.457,1111122 
TCOON,ioos:station:TCOON:524:1,2014-02-16T06:00:00Z,29.8672,-93.9310,1.458,1111122 
TCOON,ioos:station:TCOON:524:1,2014-02-16T06:30:00Z,29.8672,-93.9310,1.496,1111122 
TCOON,ioos:station:TCOON:524:1,2014-02-16T07:00:00Z,29.8672,-93.9310,1.468,1111122 
TCOON,ioos:station:TCOON:524:1,2014-02-16T07:30:00Z,29.8672,-93.9310,1.452,1111122 
TCOON,ioos:station:TCOON:524:1,2014-02-16T08:00:00Z,29.8672,-93.9310,1.48,1111122 
TCOON,ioos:station:TCOON:524:1,2014-02-16T08:30:00Z,29.8672,-93.9310,1.52,1111122 
TCOON,ioos:station:TCOON:524:1,2014-02-16T09:00:00Z,29.8672,-93.9310,1.488,1111122 
TCOON,ioos:station:TCOON:524:1,2014-02-16T09:30:00Z,29.8672,-93.9310,1.505,1111122 
TCOON,ioos:station:TCOON:524:1,2014-02-16T10:00:00Z,29.8672,-93.9310,1.516,1111122 
TCOON,ioos:station:TCOON:524:1,2014-02-16T11:00:00Z,29.8672,-93.9310,1.506,1111122 
TCOON,ioos:station:TCOON:524:1,2014-02-16T11:30:00Z,29.8672,-93.9310,1.523,1111122 
TCOON,ioos:station:TCOON:524:1,2014-02-16T12:00:00Z,29.8672,-93.9310,1.519,1111122 
TCOON,ioos:station:TCOON:524:1,2014-02-16T12:30:00Z,29.8672,-93.9310,1.491,1111122 
TCOON,ioos:station:TCOON:524:1,2014-02-16T13:00:00Z,29.8672,-93.9310,1.498,1111122 
TCOON,ioos:station:TCOON:524:1,2014-02-16T13:30:00Z,29.8672,-93.9310,1.469,1111122 
TCOON,ioos:station:TCOON:524:1,2014-02-16T14:00:00Z,29.8672,-93.9310,1.455,1111122 
TCOON,ioos:station:TCOON:524:1,2014-02-16T14:30:00Z,29.8672,-93.9310,1.453,1111122 
TCOON,ioos:station:TCOON:524:1,2014-02-16T15:00:00Z,29.8672,-93.9310,1.391,1111122 
TCOON,ioos:station:TCOON:524:1,2014-02-16T15:30:00Z,29.8672,-93.9310,1.346,1111122 
TCOON,ioos:station:TCOON:524:1,2014-02-16T16:00:00Z,29.8672,-93.9310,1.346,1111122 
TCOON,ioos:station:TCOON:524:1,2014-02-16T16:30:00Z,29.8672,-93.9310,1.32,1111122 
TCOON,ioos:station:TCOON:524:1,2014-02-16T17:00:00Z,29.8672,-93.9310,1.331,1111122 
TCOON,ioos:station:TCOON:524:1,2014-02-16T17:30:00Z,29.8672,-93.9310,1.321,1111122 
TCOON,ioos:station:TCOON:524:1,2014-02-16T18:00:00Z,29.8672,-93.9310,1.342,1111122 
TCOON,ioos:station:TCOON:524:1,2014-02-16T18:30:00Z,29.8672,-93.9310,1.325,1111122 
TCOON,ioos:station:TCOON:524:1,2014-02-16T19:00:00Z,29.8672,-93.9310,1.337,1111122 
TCOON,ioos:station:TCOON:524:1,2014-02-16T19:30:00Z,29.8672,-93.9310,1.344,1111122 
TCOON,ioos:station:TCOON:524:1,2014-02-16T20:00:00Z,29.8672,-93.9310,1.365,1111122 
TCOON,ioos:station:TCOON:524:1,2014-02-16T20:36:00Z,29.8672,-93.9310,1.382,1111122 
TCOON,ioos:station:TCOON:524:1,2014-02-16T21:00:00Z,29.8672,-93.9310,1.418,1111122 
TCOON,ioos:station:TCOON:524:1,2014-02-16T21:36:00Z,29.8672,-93.9310,1.463,1111122 
TCOON,ioos:station:TCOON:524:1,2014-02-16T22:00:00Z,29.8672,-93.9310,1.439,1111122 
TCOON,ioos:station:TCOON:524:1,2014-02-16T22:36:00Z,29.8672,-93.9310,1.472,1111122 
TCOON,ioos:station:TCOON:524:1,2014-02-16T23:06:00Z,29.8672,-93.9310,1.489,1111122 
TCOON,ioos:station:TCOON:524:1,2014-02-16T23:36:00Z,29.8672,-93.9310,1.483,1111122 
TCOON,ioos:station:TCOON:524:1,2014-02-17T00:06:00Z,29.8672,-93.9310,1.489,1111122 
TCOON,ioos:station:TCOON:524:1,2014-02-17T00:36:00Z,29.8672,-93.9310,1.526,1111122 
TCOON,ioos:station:TCOON:524:1,2014-02-17T01:06:00Z,29.8672,-93.9310,1.518,1111122 
TCOON,ioos:station:TCOON:524:1,2014-02-17T01:36:00Z,29.8672,-93.9310,1.517,1111122 
TCOON,ioos:station:TCOON:524:1,2014-02-17T02:06:00Z,29.8672,-93.9310,1.53,1111122 
TCOON,ioos:station:TCOON:524:1,2014-02-17T02:36:00Z,29.8672,-93.9310,1.529,1111122 
TCOON,ioos:station:TCOON:524:1,2014-02-17T03:06:00Z,29.8672,-93.9310,1.517,1111122 
TCOON,ioos:station:TCOON:524:1,2014-02-17T03:36:00Z,29.8672,-93.9310,1.517,1111122 
TCOON,ioos:station:TCOON:524:1,2014-02-17T04:06:00Z,29.8672,-93.9310,1.514,1111122 
TCOON,ioos:station:TCOON:524:1,2014-02-17T04:36:00Z,29.8672,-93.9310,1.504,1111122 
TCOON,ioos:station:TCOON:524:1,2014-02-17T05:06:00Z,29.8672,-93.9310,1.496,1111122 
TCOON,ioos:station:TCOON:524:1,2014-02-17T05:36:00Z,29.8672,-93.9310,1.489,1111122 
TCOON,ioos:station:TCOON:524:1,2014-02-17T06:06:00Z,29.8672,-93.9310,1.477,1111122 
TCOON,ioos:station:TCOON:524:1,2014-02-17T06:36:00Z,29.8672,-93.9310,1.497,1111122 
TCOON,ioos:station:TCOON:524:1,2014-02-17T07:06:00Z,29.8672,-93.9310,1.503,1111122 
TCOON,ioos:station:TCOON:524:1,2014-02-17T07:36:00Z,29.8672,-93.9310,1.517,1111122 
TCOON,ioos:station:TCOON:524:1,2014-02-17T08:06:00Z,29.8672,-93.9310,1.536,1111122 
TCOON,ioos:station:TCOON:524:1,2014-02-17T08:36:00Z,29.8672,-93.9310,1.531,1111122 
TCOON,ioos:station:TCOON:524:1,2014-02-17T09:06:00Z,29.8672,-93.9310,1.561,1111122 
TCOON,ioos:station:TCOON:524:1,2014-02-17T09:36:00Z,29.8672,-93.9310,1.527,1111122 
TCOON,ioos:station:TCOON:524:1,2014-02-17T10:06:00Z,29.8672,-93.9310,1.569,1111122 
TCOON,ioos:station:TCOON:524:1,2014-02-17T10:30:00Z,29.8672,-93.9310,1.577,1111122 
TCOON,ioos:station:TCOON:524:1,2014-02-17T11:06:00Z,29.8672,-93.9310,1.604,1111122 
TCOON,ioos:station:TCOON:524:1,2014-02-17T11:36:00Z,29.8672,-93.9310,1.615,1111122 
TCOON,ioos:station:TCOON:524:1,2014-02-17T12:06:00Z,29.8672,-93.9310,1.606,1111122 
TCOON,ioos:station:TCOON:524:1,2014-02-17T12:36:00Z,29.8672,-93.9310,1.612,1111122 
TCOON,ioos:station:TCOON:524:1,2014-02-17T13:06:00Z,29.8672,-93.9310,1.621,1111122 
TCOON,ioos:station:TCOON:524:1,2014-02-17T13:36:00Z,29.8672,-93.9310,1.585,1111122 
TCOON,ioos:station:TCOON:524:1,2014-02-17T14:06:00Z,29.8672,-93.9310,1.582,1111122 
TCOON,ioos:station:TCOON:524:1,2014-02-17T14:30:00Z,29.8672,-93.9310,1.601,1111122 
TCOON,ioos:station:TCOON:524:1,2014-02-17T15:06:00Z,29.8672,-93.9310,1.588,1111122 
TCOON,ioos:station:TCOON:524:1,2014-02-17T15:36:00Z,29.8672,-93.9310,1.553,1111122 
TCOON,ioos:station:TCOON:524:1,2014-02-17T16:06:00Z,29.8672,-93.9310,1.473,1111122 
TCOON,ioos:station:TCOON:524:1,2014-02-17T16:36:00Z,29.8672,-93.9310,1.442,1111122 
TCOON,ioos:station:TCOON:524:1,2014-02-17T17:06:00Z,29.8672,-93.9310,1.392,1111122 
TCOON,ioos:station:TCOON:524:1,2014-02-17T17:36:00Z,29.8672,-93.9310,1.432,1111122 